| time (UTC) | temp F | wind direction | speed knots | gust knots | rain 1hr in | rain 24hr in | rain mn in | humidity % | barometer mb |
| 20260505052507 | 65 | 201 | 10.4 | 12.2 | 0.00 | 0.00 | 0.00 | 61 | 1000.1 |
| 20260505052008 | 65 | 188 | 10.4 | 12.2 | 0.00 | 0.00 | 0.00 | 61 | 1000.1 |
| 20260505051506 | 65 | 194 | 10.4 | 13.9 | 0.00 | 0.00 | 0.00 | 60 | 1000.1 |
| 20260505051007 | 65 | 210 | 10.4 | 13.9 | 0.00 | 0.00 | 0.00 | 60 | 1000.1 |
| 20260505050508 | 65 | 206 | 10.4 | 13.9 | 0.00 | 0.00 | 0.00 | 60 | 1000.1 |
| 20260505041506 | 65 | 195 | 8.7 | 12.2 | 0.00 | 0.00 | 0.00 | 55 | 1000.1 |
| 20260505041008 | 65 | 189 | 7.8 | 10.4 | 0.00 | 0.00 | 0.00 | 54 | 1000.1 |
| 20260505040507 | 65 | 200 | 7.8 | 12.2 | 0.00 | 0.00 | 0.00 | 54 | 1000.1 |
| 20260505040007 | 65 | 206 | 7.8 | 12.2 | 0.00 | 0.00 | 0.00 | 54 | 1000.1 |
| 20260505035506 | 65 | 206 | 7.8 | 10.4 | 0.00 | 0.00 | 0.00 | 53 | 1000.1 |
| 20260505035008 | 65 | 223 | 7.8 | 13.9 | 0.00 | 0.00 | 0.00 | 53 | 1000.1 |
| 20260505034506 | 65 | 213 | 10.4 | 13.9 | 0.00 | 0.00 | 0.00 | 52 | 1000.1 |
| 20260505034008 | 66 | 224 | 12.2 | 13.9 | 0.00 | 0.00 | 0.00 | 51 | 1000.1 |
| 20260505033507 | 66 | 218 | 12.2 | 17.4 | 0.00 | 0.00 | 0.00 | 51 | 1000.1 |
| 20260505033007 | 66 | 219 | 13.9 | 17.4 | 0.00 | 0.00 | 0.00 | 50 | 1000.1 |
| 20260505032506 | 66 | 224 | 11.3 | 17.4 | 0.00 | 0.00 | 0.00 | 50 | 1000.1 |
| 20260505032008 | 67 | 208 | 12.2 | 15.6 | 0.00 | 0.00 | 0.00 | 50 | 1000.1 |
| 20260505031506 | 64 | 235 | 5.2 | 7.8 | 0.00 | 0.00 | 0.00 | 51 | 1000.1 |
| 20260505031008 | 64 | 208 | 4.3 | 6.1 | 0.00 | 0.00 | 0.00 | 51 | 1000.1 |
| 20260505030507 | 64 | 197 | 4.3 | 7.8 | 0.00 | 0.00 | 0.00 | 50 | 1000.1 |
| 20260505030007 | 65 | 195 | 4.3 | 7.8 | 0.00 | 0.00 | 0.00 | 50 | 1000.1 |
| 20260505025007 | 65 | 201 | 4.3 | 6.1 | 0.00 | 0.00 | 0.00 | 49 | 1000.1 |
| 20260505024507 | 65 | 196 | 4.3 | 6.1 | 0.00 | 0.00 | 0.00 | 49 | 1000.1 |
| 20260505024008 | 65 | 205 | 4.3 | 6.1 | 0.00 | 0.00 | 0.00 | 49 | 1000.1 |
| 20260505023508 | 65 | 196 | 4.3 | 6.1 | 0.00 | 0.00 | 0.00 | 49 | 1000.1 |
| 20260505022506 | 65 | 186 | 5.2 | 6.1 | 0.00 | 0.00 | 0.00 | 48 | 1000.1 |
| 20260505022007 | 65 | 193 | 6.1 | 6.1 | 0.00 | 0.00 | 0.00 | 48 | 1000.1 |
| 20260505021507 | 65 | 180 | 6.1 | 6.1 | 0.00 | 0.00 | 0.00 | 48 | 1000.1 |
| 20260505021008 | 66 | 183 | 6.1 | 6.1 | 0.00 | 0.00 | 0.00 | 47 | 1000.1 |
| 20260505020507 | 66 | 191 | 6.1 | 6.1 | 0.00 | 0.00 | 0.00 | 47 | 1000.1 |
| 20260505020006 | 66 | 198 | 6.1 | 7.8 | 0.00 | 0.00 | 0.00 | 47 | 1000.1 |
| 20260505015008 | 67 | 187 | 6.1 | 6.1 | 0.00 | 0.00 | 0.00 | 46 | 1000.1 |
| 20260505014506 | 67 | 195 | 6.1 | 7.8 | 0.00 | 0.00 | 0.00 | 46 | 1000.1 |
| 20260505014007 | 67 | 211 | 6.1 | 7.8 | 0.00 | 0.00 | 0.00 | 46 | 1000.1 |
| 20260505013507 | 67 | 228 | 6.1 | 7.8 | 0.00 | 0.00 | 0.00 | 46 | 1000.1 |
| 20260505013008 | 67 | 238 | 6.1 | 7.8 | 0.00 | 0.00 | 0.00 | 46 | 1000.1 |
| 20260505012007 | 68 | 229 | 6.1 | 7.8 | 0.00 | 0.00 | 0.00 | 45 | 1000.1 |
| 20260505011506 | 68 | 230 | 7.8 | 7.8 | 0.00 | 0.00 | 0.00 | 45 | 1000.1 |
| 20260505011007 | 68 | 225 | 7.8 | 7.8 | 0.00 | 0.00 | 0.00 | 44 | 1000.1 |
| 20260505010507 | 68 | 231 | 6.1 | 7.8 | 0.00 | 0.00 | 0.00 | 44 | 1000.1 |
| 20260505010006 | 68 | 222 | 6.1 | 7.8 | 0.00 | 0.00 | 0.00 | 44 | 1000.1 |
| 20260505005507 | 69 | 234 | 6.1 | 7.8 | 0.00 | 0.00 | 0.00 | 44 | 1000.1 |
| 20260505004507 | 69 | 231 | 7.8 | 10.4 | 0.00 | 0.00 | 0.00 | 44 | 1000.1 |
| 20260505003507 | 69 | 228 | 7.8 | 12.2 | 0.00 | 0.00 | 0.00 | 43 | 1000.1 |
| 20260505003008 | 70 | 237 | 7.8 | 10.4 | 0.00 | 0.00 | 0.00 | 43 | 1000.1 |
| 20260505002507 | 70 | 226 | 7.8 | 10.4 | 0.00 | 0.00 | 0.00 | 42 | 1000.1 |
| 20260505002008 | 70 | 235 | 7.8 | 10.4 | 0.00 | 0.00 | 0.00 | 42 | 1000.1 |
| 20260505001506 | 70 | 231 | 7.8 | 7.8 | 0.00 | 0.00 | 0.00 | 42 | 1000.1 |
| 20260505001008 | 71 | 225 | 6.1 | 7.8 | 0.00 | 0.00 | 0.00 | 42 | 1000.1 |
| 20260505000507 | 71 | 227 | 6.1 | 7.8 | 0.00 | 0.00 | 0.00 | 42 | 1000.1 |
| 20260505000006 | 70 | 231 | 6.1 | 7.8 | 0.00 | 0.00 | 0.00 | 42 | 1000.1 |
| 20260504235507 | 71 | 243 | 6.1 | 7.8 | 0.00 | 0.00 | 0.00 | 42 | 1000.1 |
| 20260504235007 | 71 | 248 | 6.1 | 7.8 | 0.00 | 0.00 | 0.00 | 42 | 1000.1 |
| 20260504234507 | 71 | 236 | 6.1 | 7.8 | 0.00 | 0.00 | 0.00 | 42 | 1000.1 |
| 20260504234008 | 71 | 243 | 6.1 | 7.8 | 0.00 | 0.00 | 0.00 | 42 | 1000.1 |
| 20260504233507 | 71 | 249 | 7.8 | 12.2 | 0.00 | 0.00 | 0.00 | 42 | 1000.1 |
| 20260504233007 | 71 | 254 | 7.8 | 12.2 | 0.00 | 0.00 | 0.00 | 42 | 1000.1 |
| 20260504232506 | 72 | 259 | 10.4 | 12.2 | 0.00 | 0.00 | 0.00 | 41 | 999.7 |
| 20260504232007 | 72 | 261 | 10.4 | 13.9 | 0.00 | 0.00 | 0.00 | 41 | 1000.1 |
| 20260504231506 | 72 | 261 | 11.3 | 15.6 | 0.00 | 0.00 | 0.00 | 41 | 999.7 |
| 20260504231007 | 73 | 266 | 12.2 | 15.6 | 0.00 | 0.00 | 0.00 | 41 | 999.1 |
| 20260504230507 | 73 | 252 | 11.3 | 13.9 | 0.00 | 0.00 | 0.00 | 41 | 999.1 |
| 20260504225508 | 73 | 255 | 11.3 | 13.9 | 0.00 | 0.00 | 0.00 | 41 | 999.1 |
| 20260504225007 | 73 | 254 | 10.4 | 13.9 | 0.00 | 0.00 | 0.00 | 41 | 999.1 |
| 20260504224506 | 73 | 260 | 10.4 | 13.9 | 0.00 | 0.00 | 0.00 | 40 | 999.1 |
| 20260504224008 | 73 | 256 | 11.3 | 15.6 | 0.00 | 0.00 | 0.00 | 40 | 999.1 |
| 20260504223507 | 73 | 240 | 12.2 | 17.4 | 0.00 | 0.00 | 0.00 | 40 | 999.1 |
| 20260504223007 | 73 | 257 | 12.2 | 17.4 | 0.00 | 0.00 | 0.00 | 40 | 999.1 |
| 20260504222506 | 73 | 248 | 13.0 | 15.6 | 0.00 | 0.00 | 0.00 | 41 | 999.1 |
| 20260504222007 | 73 | 263 | 13.9 | 15.6 | 0.00 | 0.00 | 0.00 | 40 | 999.1 |
| 20260504221007 | 73 | 255 | 12.2 | 19.1 | 0.00 | 0.00 | 0.00 | 41 | 999.1 |
| 20260504220507 | 73 | 257 | 14.8 | 19.1 | 0.00 | 0.00 | 0.00 | 40 | 999.1 |
| 20260504220006 | 74 | 258 | 13.9 | 17.4 | 0.00 | 0.00 | 0.00 | 40 | 999.1 |
| 20260504215507 | 74 | 254 | 14.8 | 17.4 | 0.00 | 0.00 | 0.00 | 40 | 999.1 |
| 20260504215007 | 74 | 253 | 13.9 | 17.4 | 0.00 | 0.00 | 0.00 | 41 | 998.6 |
| 20260504214007 | 73 | 243 | 15.6 | 26.9 | 0.00 | 0.00 | 0.00 | 41 | 999.1 |
| 20260504213008 | 74 | 242 | 14.8 | 20.9 | 0.00 | 0.00 | 0.00 | 41 | 999.1 |
| 20260504212506 | 74 | 261 | 15.6 | 20.9 | 0.00 | 0.00 | 0.00 | 41 | 999.1 |
| 20260504212007 | 74 | 239 | 15.6 | 22.6 | 0.00 | 0.00 | 0.00 | 41 | 999.1 |
| 20260504211506 | 74 | 256 | 18.2 | 22.6 | 0.00 | 0.00 | 0.00 | 41 | 999.1 |
| 20260504211007 | 74 | 265 | 15.6 | 22.6 | 0.00 | 0.00 | 0.00 | 42 | 999.1 |
| 20260504210506 | 74 | 241 | 17.4 | 22.6 | 0.00 | 0.00 | 0.00 | 41 | 999.1 |
| 20260504210006 | 74 | 242 | 16.5 | 20.9 | 0.00 | 0.00 | 0.00 | 42 | 999.1 |
| 20260504205007 | 74 | 243 | 19.1 | 22.6 | 0.00 | 0.00 | 0.00 | 42 | 999.1 |
| 20260504204007 | 73 | 249 | 19.1 | 26.9 | 0.00 | 0.00 | 0.00 | 42 | 999.3 |
| 20260504203507 | 73 | 240 | 19.1 | 26.9 | 0.00 | 0.00 | 0.00 | 43 | 1000.1 |
| 20260504202506 | 73 | 235 | 19.1 | 26.9 | 0.00 | 0.00 | 0.00 | 43 | 999.1 |
| 20260504202007 | 73 | 243 | 19.1 | 22.6 | 0.00 | 0.00 | 0.00 | 43 | 1000.1 |
| 20260504201506 | 73 | 241 | 19.1 | 26.9 | 0.00 | 0.00 | 0.00 | 44 | 1000.1 |
| 20260504201007 | 73 | 253 | 19.1 | 26.9 | 0.00 | 0.00 | 0.00 | 44 | 999.9 |
| 20260504200506 | 73 | 248 | 15.6 | 26.9 | 0.00 | 0.00 | 0.00 | 44 | 1000.1 |
| 20260504200006 | 73 | 253 | 13.9 | 20.9 | 0.00 | 0.00 | 0.00 | 44 | 1000.1 |
| 20260504195505 | 73 | 248 | 16.5 | 25.2 | 0.00 | 0.00 | 0.00 | 44 | 1000.1 |
| 20260504195007 | 73 | 232 | 16.5 | 25.2 | 0.00 | 0.00 | 0.00 | 44 | 1000.1 |
| 20260504194506 | 72 | 230 | 13.9 | 19.1 | 0.00 | 0.00 | 0.00 | 45 | 1000.1 |
| 20260504194007 | 72 | 245 | 12.2 | 19.1 | 0.00 | 0.00 | 0.00 | 45 | 1000.1 |
| 20260504193506 | 72 | 252 | 13.9 | 19.1 | 0.00 | 0.00 | 0.00 | 45 | 1000.1 |
| 20260504193007 | 72 | 236 | 15.6 | 22.6 | 0.00 | 0.00 | 0.00 | 45 | 1000.6 |
| 20260504192506 | 71 | 235 | 18.2 | 22.6 | 0.00 | 0.00 | 0.00 | 45 | 1000.9 |
| 20260504192007 | 71 | 239 | 19.1 | 22.6 | 0.00 | 0.00 | 0.00 | 45 | 1000.8 |
| 20260504191505 | 71 | 236 | 17.4 | 22.6 | 0.00 | 0.00 | 0.00 | 46 | 1000.6 |
| 20260504191007 | 71 | 236 | 19.1 | 22.6 | 0.00 | 0.00 | 0.00 | 46 | 1001.1 |
| 20260504190507 | 71 | 252 | 17.4 | 22.6 | 0.00 | 0.00 | 0.00 | 47 | 1000.3 |
| 20260504190006 | 71 | 244 | 19.1 | 26.9 | 0.00 | 0.00 | 0.00 | 47 | 1001.1 |
| 20260504184007 | 70 | 254 | 17.4 | 20.9 | 0.00 | 0.00 | 0.00 | 49 | 1001.1 |
| 20260504183506 | 70 | 252 | 17.4 | 22.6 | 0.00 | 0.00 | 0.00 | 49 | 1001.1 |
| 20260504183007 | 70 | 237 | 19.1 | 22.6 | 0.00 | 0.00 | 0.00 | 49 | 1001.1 |
| 20260504182505 | 69 | 234 | 19.1 | 22.6 | 0.00 | 0.00 | 0.00 | 49 | 1001.1 |
| 20260504182007 | 69 | 262 | 17.4 | 22.6 | 0.00 | 0.00 | 0.00 | 49 | 1001.1 |
| 20260504181506 | 70 | 242 | 17.4 | 25.2 | 0.00 | 0.00 | 0.00 | 50 | 1001.1 |
| 20260504181007 | 69 | 240 | 19.1 | 25.2 | 0.00 | 0.00 | 0.00 | 49 | 1001.1 |
| 20260504180506 | 69 | 258 | 15.6 | 22.6 | 0.00 | 0.00 | 0.00 | 50 | 1001.1 |
| 20260504180006 | 69 | 242 | 19.1 | 25.2 | 0.00 | 0.00 | 0.00 | 50 | 1001.5 |
| 20260504175506 | 69 | 231 | 19.1 | 25.2 | 0.00 | 0.00 | 0.00 | 50 | 1001.1 |
| 20260504175007 | 69 | 242 | 19.1 | 22.6 | 0.00 | 0.00 | 0.00 | 51 | 1001.2 |
| 20260504174507 | 69 | 260 | 16.5 | 20.9 | 0.00 | 0.00 | 0.00 | 51 | 1001.7 |
| 20260504174007 | 68 | 252 | 15.6 | 19.1 | 0.00 | 0.00 | 0.00 | 51 | 1002.1 |
| 20260504173506 | 69 | 245 | 15.6 | 19.1 | 0.00 | 0.00 | 0.00 | 51 | 1002.1 |
| 20260504173007 | 68 | 243 | 15.6 | 20.9 | 0.00 | 0.00 | 0.00 | 51 | 1002.1 |
| 20260504172506 | 68 | 225 | 17.4 | 22.6 | 0.00 | 0.00 | 0.00 | 51 | 1002.1 |
| 20260504172007 | 68 | 253 | 17.4 | 22.6 | 0.00 | 0.00 | 0.00 | 51 | 1002.1 |
| 20260504171506 | 68 | 234 | 17.4 | 22.6 | 0.00 | 0.00 | 0.00 | 51 | 1002.1 |
| 20260504171007 | 67 | 241 | 16.5 | 22.6 | 0.00 | 0.00 | 0.00 | 51 | 1002.1 |
| 20260504170506 | 68 | 221 | 13.9 | 22.6 | 0.00 | 0.00 | 0.00 | 52 | 1002.1 |
| 20260504151006 | 63 | 231 | 15.6 | 20.9 | 0.00 | 0.00 | 0.00 | 54 | 1003.1 |
| 20260504150506 | 63 | 235 | 15.6 | 20.9 | 0.00 | 0.00 | 0.00 | 54 | 1003.1 |
| 20260504141006 | 61 | 245 | 18.2 | 25.2 | 0.00 | 0.00 | 0.00 | 55 | 1003.1 |
| 20260504140505 | 61 | 247 | 17.4 | 22.6 | 0.00 | 0.00 | 0.00 | 55 | 1003.1 |
| 20260504130506 | 60 | 244 | 13.9 | 20.9 | 0.00 | 0.00 | 0.00 | 57 | 1004.1 |
| 20260504110508 | 53 | 202 | 7.8 | 10.4 | 0.00 | 0.00 | 0.00 | 60 | 1005.1 |
| 20260504100507 | 55 | 213 | 12.2 | 15.6 | 0.00 | 0.00 | 0.00 | 57 | 1004.8 |
| 20260504082008 | 53 | 220 | 12.2 | 15.6 | 0.00 | 0.00 | 0.00 | 60 | 1005.7 |
| 20260504081508 | 53 | 227 | 12.2 | 15.6 | 0.00 | 0.00 | 0.00 | 60 | 1006.1 |
| 20260504081007 | 53 | 227 | 12.2 | 13.9 | 0.00 | 0.00 | 0.00 | 60 | 1006.1 |
| 20260504080507 | 53 | 232 | 12.2 | 13.9 | 0.00 | 0.00 | 0.00 | 60 | 1006.1 |